| time (UTC) | temp F | wind direction | speed MPH | gust MPH | rain 1hr in | rain 24hr in | rain mn in | humidity % | barometer mb |
| 20260507114556 | 61 | 283 | 0.0 | 6.0 | 0.00 | 0.00 | 0.00 | 46 | 1015.4 |
| 20260507113051 | 61 | 292 | 1.0 | 6.0 | 0.00 | 0.00 | 0.00 | 50 | 1015.4 |
| 20260507111553 | 61 | 26 | 1.0 | 6.0 | 0.00 | 0.00 | 0.00 | 54 | 1015.6 |
| 20260507110049 | 60 | 339 | 2.0 | 4.0 | 0.00 | 0.00 | 0.00 | 55 | 1015.6 |
| 20260507104554 | 61 | 14 | 0.0 | 7.0 | 0.00 | 0.00 | 0.00 | 54 | 1015.7 |
| 20260507103047 | 60 | 0 | 1.0 | 4.0 | 0.00 | 0.00 | 0.00 | 55 | 1015.7 |
| 20260507101558 | 60 | 360 | 2.0 | 5.0 | 0.00 | 0.00 | 0.00 | 60 | 1015.7 |
| 20260507094552 | 58 | 0 | 1.0 | 4.0 | 0.00 | 0.00 | 0.00 | 63 | 1015.7 |
| 20260507093057 | 58 | 0 | 1.0 | 6.0 | 0.00 | 0.00 | 0.00 | 67 | 1015.8 |
| 20260507091557 | 57 | 355 | 1.0 | 4.0 | 0.00 | 0.00 | 0.00 | 69 | 1015.7 |
| 20260507090050 | 55 | 293 | 0.0 | 3.0 | 0.00 | 0.00 | 0.00 | 73 | 1015.6 |
| 20260507084558 | 54 | 26 | 0.0 | 2.0 | 0.00 | 0.00 | 0.00 | 76 | 1015.5 |
| 20260507083103 | 53 | 0 | 0.0 | 2.0 | 0.00 | 0.00 | 0.00 | 77 | 1015.6 |
| 20260507081600 | 53 | 0 | 0.0 | 2.0 | 0.00 | 0.00 | 0.00 | 78 | 1015.5 |
| 20260507080050 | 53 | 0 | 0.0 | 3.0 | 0.00 | 0.00 | 0.00 | 80 | 1015.5 |
| 20260507074608 | 52 | 0 | 0.0 | 2.0 | 0.00 | 0.00 | 0.00 | 80 | 1015.5 |
| 20260507073059 | 51 | 0 | 0.0 | 2.0 | 0.00 | 0.00 | 0.00 | 83 | 1015.5 |
| 20260507071556 | 50 | 277 | 0.0 | 2.0 | 0.00 | 0.00 | 0.00 | 85 | 1015.4 |
| 20260507070047 | 50 | 0 | 1.0 | 3.0 | 0.00 | 0.00 | 0.00 | 86 | 1015.3 |
| 20260507064546 | 49 | 0 | 0.0 | 2.0 | 0.00 | 0.00 | 0.00 | 88 | 1015.2 |
| 20260507063053 | 48 | 273 | 0.0 | 3.0 | 0.00 | 0.00 | 0.00 | 89 | 1015.1 |
| 20260507061549 | 48 | 277 | 1.0 | 3.0 | 0.00 | 0.00 | 0.00 | 89 | 1015.1 |
| 20260507060057 | 48 | 296 | 0.0 | 3.0 | 0.00 | 0.00 | 0.00 | 89 | 1014.9 |
| 20260507054550 | 47 | 0 | 0.0 | 2.0 | 0.00 | 0.00 | 0.00 | 90 | 1014.9 |
| 20260507053048 | 47 | 293 | 1.0 | 4.0 | 0.00 | 0.00 | 0.00 | 90 | 1014.8 |
| 20260507051550 | 47 | 279 | 0.0 | 3.0 | 0.00 | 0.00 | 0.00 | 89 | 1014.7 |
| 20260507050050 | 47 | 0 | 1.0 | 3.0 | 0.00 | 0.00 | 0.00 | 89 | 1014.5 |
| 20260507044549 | 47 | 287 | 0.0 | 2.0 | 0.00 | 0.00 | 0.00 | 89 | 1014.3 |
| 20260507043049 | 47 | 296 | 0.0 | 2.0 | 0.00 | 0.00 | 0.00 | 89 | 1014.2 |
| 20260507041550 | 47 | 282 | 0.0 | 2.0 | 0.00 | 0.00 | 0.00 | 89 | 1014.1 |
| 20260507040046 | 47 | 0 | 0.0 | 1.0 | 0.00 | 0.00 | 0.00 | 89 | 1014.1 |
| 20260507034551 | 47 | 289 | 0.0 | 2.0 | 0.00 | 0.01 | 0.00 | 89 | 1014.0 |
| 20260507033049 | 47 | 0 | 0.0 | 2.0 | 0.00 | 0.01 | 0.00 | 89 | 1014.0 |
| 20260507031552 | 47 | 286 | 0.0 | 2.0 | 0.00 | 0.01 | 0.00 | 89 | 1014.0 |
| 20260507030054 | 47 | 0 | 0.0 | 2.0 | 0.00 | 0.01 | 0.00 | 89 | 1014.0 |
| 20260507024613 | 47 | 0 | 0.0 | 2.0 | 0.00 | 0.02 | 0.00 | 89 | 1014.0 |
| 20260507023051 | 47 | 0 | 0.0 | 0.0 | 0.00 | 0.02 | 0.00 | 89 | 1014.0 |
| 20260507021551 | 47 | 0 | 0.0 | 1.0 | 0.00 | 0.02 | 0.00 | 89 | 1013.9 |
| 20260507020107 | 47 | 0 | 0.0 | 4.0 | 0.00 | 0.02 | 0.00 | 89 | 1013.9 |
| 20260507014603 | 47 | 0 | 0.0 | 2.0 | 0.00 | 0.03 | 0.00 | 89 | 1013.8 |
| 20260507013053 | 47 | 0 | 0.0 | 1.0 | 0.00 | 0.03 | 0.00 | 89 | 1013.7 |
| 20260507011551 | 47 | 276 | 0.0 | 4.0 | 0.00 | 0.03 | 0.00 | 88 | 1013.8 |
| 20260507010053 | 47 | 0 | 0.0 | 3.0 | 0.00 | 0.03 | 0.00 | 89 | 1013.7 |
| 20260507004549 | 47 | 0 | 0.0 | 3.0 | 0.00 | 0.04 | 0.00 | 89 | 1013.6 |
| 20260507003053 | 47 | 0 | 0.0 | 3.0 | 0.00 | 0.04 | 0.00 | 89 | 1013.6 |
| 20260507001557 | 47 | 0 | 0.0 | 2.0 | 0.00 | 0.04 | 0.00 | 88 | 1013.6 |
| 20260507000053 | 46 | 0 | 0.0 | 3.0 | 0.00 | 0.04 | 0.00 | 88 | 1013.6 |
| 20260506234600 | 46 | 0 | 0.0 | 3.0 | 0.00 | 0.06 | 0.00 | 88 | 1013.8 |
| 20260506233057 | 46 | 0 | 0.0 | 4.0 | 0.00 | 0.06 | 0.00 | 88 | 1013.6 |
| 20260506231557 | 47 | 309 | 0.0 | 4.0 | 0.00 | 0.06 | 0.00 | 87 | 1013.5 |
| 20260506230058 | 47 | 273 | 0.0 | 6.0 | 0.00 | 0.06 | 0.00 | 87 | 1013.6 |
| 20260506224555 | 47 | 0 | 0.0 | 4.0 | 0.00 | 0.07 | 0.00 | 87 | 1013.5 |
| 20260506223059 | 47 | 0 | 0.0 | 3.0 | 0.00 | 0.07 | 0.00 | 86 | 1013.3 |
| 20260506221551 | 47 | 279 | 0.0 | 3.0 | 0.00 | 0.07 | 0.00 | 85 | 1013.3 |
| 20260506220055 | 48 | 297 | 0.0 | 4.0 | 0.00 | 0.07 | 0.00 | 84 | 1013.1 |
| 20260506214553 | 48 | 0 | 0.0 | 2.0 | 0.00 | 0.10 | 0.07 | 83 | 1013.2 |
| 20260506213113 | 48 | 274 | 0.0 | 4.0 | 0.00 | 0.10 | 0.07 | 82 | 1013.1 |
| 20260506211611 | 49 | 0 | 0.0 | 2.0 | 0.00 | 0.10 | 0.07 | 82 | 1013.0 |
| 20260506210100 | 49 | 295 | 0.0 | 1.0 | 0.00 | 0.10 | 0.07 | 82 | 1013.1 |
| 20260506204558 | 49 | 0 | 0.0 | 2.0 | 0.00 | 0.12 | 0.07 | 80 | 1013.0 |
| 20260506203052 | 49 | 0 | 0.0 | 2.0 | 0.00 | 0.12 | 0.07 | 80 | 1012.9 |
| 20260506201600 | 50 | 281 | 0.0 | 2.0 | 0.00 | 0.12 | 0.07 | 80 | 1012.8 |
| 20260506200058 | 50 | 0 | 0.0 | 4.0 | 0.00 | 0.12 | 0.07 | 79 | 1012.6 |
| 20260506194558 | 50 | 0 | 0.0 | 3.0 | 0.00 | 0.12 | 0.07 | 78 | 1012.4 |
| 20260506193050 | 51 | 286 | 0.0 | 2.0 | 0.00 | 0.12 | 0.07 | 78 | 1012.1 |
| 20260506191552 | 51 | 289 | 0.0 | 5.0 | 0.00 | 0.12 | 0.07 | 77 | 1012.0 |
| 20260506190051 | 52 | 272 | 0.0 | 4.0 | 0.00 | 0.12 | 0.07 | 76 | 1011.8 |
| 20260506184604 | 52 | 289 | 0.0 | 4.0 | 0.00 | 0.12 | 0.07 | 75 | 1011.7 |
| 20260506183100 | 53 | 360 | 0.0 | 6.0 | 0.00 | 0.12 | 0.07 | 75 | 1011.6 |
| 20260506181554 | 53 | 294 | 0.0 | 7.0 | 0.00 | 0.12 | 0.07 | 75 | 1011.3 |
| 20260506180055 | 53 | 0 | 0.0 | 7.0 | 0.00 | 0.12 | 0.07 | 75 | 1011.0 |
| 20260506174551 | 54 | 0 | 0.0 | 4.0 | 0.00 | 0.12 | 0.07 | 74 | 1010.9 |
| 20260506173054 | 54 | 0 | 0.0 | 3.0 | 0.00 | 0.12 | 0.07 | 73 | 1010.9 |
| 20260506171556 | 54 | 278 | 0.0 | 5.0 | 0.00 | 0.12 | 0.07 | 71 | 1010.7 |
| 20260506170109 | 55 | 9 | 1.0 | 7.0 | 0.00 | 0.12 | 0.07 | 70 | 1010.7 |
| 20260506164551 | 56 | 275 | 1.0 | 6.0 | 0.00 | 0.13 | 0.07 | 70 | 1010.6 |
| 20260506163109 | 56 | 275 | 1.0 | 7.0 | 0.00 | 0.13 | 0.07 | 70 | 1010.5 |
| 20260506161550 | 55 | 0 | 0.0 | 5.0 | 0.00 | 0.13 | 0.07 | 69 | 1010.6 |
| 20260506160052 | 55 | 0 | 0.0 | 8.0 | 0.00 | 0.13 | 0.07 | 70 | 1010.5 |
| 20260506154552 | 55 | 0 | 0.0 | 9.0 | 0.00 | 0.14 | 0.07 | 72 | 1010.5 |
| 20260506153051 | 54 | 309 | 1.0 | 4.0 | 0.00 | 0.14 | 0.07 | 71 | 1010.6 |
| 20260506151549 | 54 | 0 | 0.0 | 4.0 | 0.00 | 0.14 | 0.07 | 72 | 1010.6 |
| 20260506150055 | 54 | 273 | 1.0 | 7.0 | 0.00 | 0.14 | 0.07 | 70 | 1010.5 |
| 20260506144601 | 54 | 296 | 0.0 | 4.0 | 0.00 | 0.20 | 0.07 | 71 | 1010.6 |
| 20260506143055 | 55 | 0 | 1.0 | 4.0 | 0.00 | 0.20 | 0.07 | 69 | 1010.6 |
| 20260506141553 | 56 | 279 | 1.0 | 9.0 | 0.00 | 0.20 | 0.07 | 67 | 1010.4 |
| 20260506140048 | 57 | 263 | 0.0 | 7.0 | 0.00 | 0.20 | 0.07 | 67 | 1010.3 |
| 20260506134552 | 57 | 243 | 1.0 | 9.0 | 0.00 | 0.22 | 0.07 | 66 | 1010.4 |
| 20260506133048 | 56 | 34 | 1.0 | 7.0 | 0.00 | 0.22 | 0.07 | 68 | 1010.4 |
| 20260506131551 | 56 | 262 | 1.0 | 10.0 | 0.00 | 0.22 | 0.07 | 67 | 1010.5 |
| 20260506130059 | 56 | 0 | 1.0 | 8.0 | 0.00 | 0.22 | 0.07 | 66 | 1010.4 |
| 20260506124550 | 56 | 271 | 2.0 | 9.0 | 0.00 | 0.22 | 0.07 | 67 | 1010.2 |
| 20260506123053 | 56 | 256 | 1.0 | 6.0 | 0.00 | 0.22 | 0.07 | 67 | 1010.1 |
| 20260506121552 | 56 | 12 | 3.0 | 8.0 | 0.00 | 0.22 | 0.07 | 67 | 1010.1 |
| 20260506120053 | 57 | 273 | 2.0 | 9.0 | 0.00 | 0.22 | 0.07 | 71 | 1010.2 |